Location: Mount Cross
(36.6390°N, 79.4878°W)
Time: 19:22:34
(UTC+00:00)

Courier 1B Rocket - Pass Details

Date: 29 March 2023
Orbit: 920 x 1202 km, 28.2° (Epoch: 05 June)

Event Time Altitude Azimuth Distance (km) Brightness Sun altitude
Rises 23:51:30 0° 236° (SW) 3,983 9.1 -3.8°
Reaches altitude 10° 23:54:39 10° 227° (SW) 2,983 8.2 -4.4°
Maximum altitude 00:01:02 33° 167° (SSE) 1,711 6.1 -5.7°
Drops below altitude 10° 00:07:02 10° 105° (ESE) 2,801 6.7 -6.9°
Enters shadow 00:07:34 - 103° (ESE) 2,963 6.8 -7.0°
Sets 00:09:54 0° 96° (E) 3,709 - -7.4°
